Terminal Aerodrome Forecast
Issued by NWS Quad Cities IA IL

Home | Current Version | Previous Version | Text Only | Print | Product List | Glossary On
Versions: 1 2 3 4 5 6 7 8 9 10 11 12 13 14 15 16 17 18 19 20 21 22 23 24 25
000
FTUS43 KDVN 301120
TAFMLI
TAF
KMLI 301120Z 3012/3112 00000KT 1/4SM FG VV002
     FM301500 VRB03KT 3SM BR SKC
     FM301600 14004KT P6SM SCT025
     FM310900 00000KT 4SM BR SKC=

USA.gov is the U.S. government's official web portal to all federal, state and local government web resources and services.